This demonstration page uses our WeatherBlox Daily Observations layout. Learn more.

Left ArrowRight Arrow

41.55636, -103.73856

Hourly Observations for September 5, 2015

Temp ( °F °C ) Dew Point ( °F °C ) Humidity (%) Winds ( mph kmh ) Pressure ( in mb ) Visibility ( mi km ) Precip ( " mm )
12:53 am 00:53 Clear 69 20.6 54 12.2 59 59 SE 9 15 29.7 1006 10 16.0934 0 0
1:53 am 01:53 Cloudy with Light Rain 71 21.7 55 12.8 57 57 ESE 12 19 29.71 1006 10 16.0934 0 0.0254
2:53 am 02:53 Cloudy 70 21.1 55 12.8 59 59 Calm 29.69 1005 10 16.0934 0 0.0254
3:53 am 03:53 Mostly Cloudy 68 20 58 14.4 70 70 WNW 5 7 29.69 1006 10 16.0934 0 0.0254
4:53 am 04:53 Mostly Clear 67 19.4 57 13.9 71 71 Calm 29.7 1006 10 16.0934 0 0
5:53 am 05:53 Partly Cloudy 66 18.9 55 12.8 68 68 NW 6 9 29.71 1006 10 16.0934 0 0
6:53 am 06:53 Cloudy 65 18.3 56 13.3 73 73 NW 7 11 29.74 1007 10 16.0934 0 0
7:53 am 07:53 Cloudy with Light Rain 67 19.4 56 13.3 68 68 NW 5 7 29.76 1008 10 16.0934 0 0.0254
8:53 am 08:53 Mostly Cloudy 72 22.2 56 13.3 57 57 WNW 8 13 29.75 1008 10 16.0934 0 0.0254
9:53 am 09:53 Sunny 74 23.3 55 12.8 52 52 NW 10 17 29.75 1008 10 16.0934 0 0
10:53 am 10:53 Sunny 80 26.7 52 11.1 38 38 W 8 13 29.76 1008 10 16.0934 0 0
11:53 am 11:53 Sunny 85 29.4 52 11.1 32 32 WNW 10 17 29.74 1007 10 16.0934 0 0
12:53 pm 12:53 Sunny 89 31.7 47 8.3 23 23 NNW 9 15 29.71 1006 10 16.0934 0 0
1:53 pm 13:53 Sunny 89 31.7 46 7.8 23 23 NNW 7 11 29.7 1006 10 16.0934 0 0
2:53 pm 14:53 Sunny 91 32.8 46 7.8 21 21 VRB 5 7 29.69 1005 10 16.0934 0 0
3:53 pm 15:53 Mostly Cloudy 88 31.1 49 9.4 26 26 ENE 6 9 29.69 1005 10 16.0934 0 0
4:53 pm 16:53 Mostly Sunny 88 31.1 48 8.9 25 25 ESE 12 19 29.68 1005 10 16.0934 0 0
5:53 pm 17:53 Sunny 86 30 53 11.7 32 32 SE 12 19 29.7 1006 10 16.0934 0 0
6:53 pm 18:53 Sunny 81 27.2 51 10.6 35 35 ESE 13 20 29.7 1006 10 16.0934 0 0
7:53 pm 19:53 Clear 75 23.9 52 11.1 45 45 ESE 8 13 29.72 1007 10 16.0934 0 0
8:53 pm 20:53 Clear 70 21.1 55 12.8 59 59 ESE 8 13 29.74 1007 10 16.0934 0 0
9:53 pm 21:53 Clear 67 19.4 55 12.8 66 66 E 7 11 29.75 1007 10 16.0934 0 0
10:53 pm 22:53 Partly Cloudy 68 20 54 12.2 61 61 Calm 29.75 1007 10 16.0934 0 0
11:53 pm 23:53 Mostly Clear 67 19.4 52 11.1 59 59 VRB 6 9 29.74 1007 10 16.0934 0 0

Powered by AerisWeather